Location: Kitt Peak
(31.9639°N, 111.5992°W)
Time: 05:56:15
(UTC-07:00)

O/OREOS (USA 219) - Visible Passes

Search period start: 17 September 2024 00:00
Search period end: 27 September 2024 00:00
Orbit: 591 x 615 km, 72.0° (Epoch: 16 September)

Date Brightness Start Highest point End Pass type
(mag) Time Alt. Az. Time Alt. Az. Time Alt. Az.
17 Sep ? 05:41:12 10° SE 05:44:05 17° E 05:46:57 10° ENE visible
21 Sep ? 04:51:30 10° SE 04:54:29 18° E 04:57:28 10° ENE visible
22 Sep ? 05:02:33 10° S 05:06:32 35° ESE 05:10:33 10° NE visible
23 Sep ? 05:14:17 10° S 05:18:40 71° ESE 05:23:05 10° NNE visible
24 Sep ? 05:26:32 10° SSW 05:30:52 57° WNW 05:35:12 10° N visible
25 Sep ? 04:01:36 10° SE 04:04:40 19° E 04:07:43 10° ENE visible
25 Sep ? 05:39:17 10° SW 05:43:08 29° WNW 05:47:00 10° N visible
26 Sep ? 04:14:44 24° SSE 04:16:40 36° ESE 04:20:43 10° NE visible
26 Sep ? 05:52:47 10° W 05:55:30 16° WNW 05:58:12 10° NNW visible
